Weather Roundup
Issued by NWS

Home | Current Version | Previous Version | Text Only | Print | Product List | Glossary On
Versions: 1 2 3 4 5 6 7 8 9 10 11 12 13 14 15 16 17 18 19 20 21 22 23 24 25 26 27 28 29 30 31 32 33 34 35 36 37 38 39 40 41 42 43 44 45 46 47 48 49 50
000
NZUS93 KARX 180010
HRRWXR

CURRENT HOURLY OBSERVATIONS ACROSS
MUCH OF THE UPPER MISSISSIPPI VALLEY
NATIONAL WEATHER SERVICE LA CROSSE WI
600 PM CST TUE JAN 17 2017


...SOUTHEAST MINNESOTA...


CITY           SKY/WX    TMP DP  RH WIND       PRES   REMARKS
ROCHESTER      CLOUDY    32  32 100 NW12      29.99S WCI  23
ROCHESTER/MAYO CLOUDY    33  33 100 W10       30.00R WCI  25
WINONA         CLOUDY    34  32  93 NW5       30.01R WCI  30
AUSTIN         CLOUDY    34  30  86 NW6       30.00S FOG     WCI  29
ALBERT LEA     FOG       30  30 100 CALM      30.01S VSB 3/4
DODGE CENTER   CLOUDY    32  30  93 CALM      29.99S FOG
PRESTON        CLOUDY    32  31  96 NW10      29.99R FOG     WCI  24
OWATONNA       CLOUDY    32  30  93 W3        30.00F FOG
FARIBAULT        N/A     34  32  93 SW5       30.01S FOG     WCI  30
$$

...ELSEWHERE IN MINNESOTA...


CITY           SKY/WX    TMP DP  RH WIND       PRES   REMARKS
MINNEAPOLIS    CLOUDY    33  30  88 W8        29.99S WCI  26
INTNL FALLS    CLOUDY    25  15  66 VRB3      29.80F
DULUTH         CLOUDY    29  24  82 SW3       29.88S
RED WING       CLOUDY    34  30  86 CALM      29.99S FOG
REDWOOD FALLS  CLOUDY    24  18  77 S5        29.99S WCI  18
MANKATO        CLOUDY    29  28  96 W9        30.02R FOG     WCI  20
WORTHINGTON    CLEAR     27  25  92 SW10      30.00  WCI  17
FAIRMONT       PTCLDY    29  28  96 SW6       30.03R WCI  23
$$

...SOUTHWEST WISCONSIN...


CITY           SKY/WX    TMP DP  RH WIND       PRES   REMARKS
LA CROSSE      CLOUDY    36  34  92 NW6       29.98R WCI  31
PRAIRIE DU CHI DRIZZLE   33  32  96 CALM      29.99R
BOSCOBEL       CLOUDY    34  32  92 S3        29.98S
LONE ROCK      LGT RAIN  33  31  92 W5        29.97R FOG     WCI  29
PLATTEVILLE    CLOUDY    33  33 100 W8        29.97S WCI  26
FORT MC COY    CLOUDY    33  33 100 W3        29.98R FOG
CAMP DOUGLAS   LGT SNOW  34  32  93 W6        29.94R FOG     WCI  29
MAUSTON-NEW LI LGT RAIN  34  34 100 W5        29.94R WCI  30
VIROQUA        CLOUDY    32  32 100 NW7       29.95R WCI  26
WIS DELLS      DRIZZLE   33  33  99 W3        29.93S
$$

...ELSEWHERE IN WISCONSIN...


CITY           SKY/WX    TMP DP  RH WIND       PRES   REMARKS
MILWAUKEE      DRIZZLE   36  34  92 W10       29.92R FOG     WCI  28
MADISON        DRIZZLE   34  33  96 W6        29.95R FOG     WCI  29
GREEN BAY      CLOUDY    35  35 100 N5        29.91R FOG     WCI  31
EAU CLAIRE     CLEAR     33  31  92 W7        29.97R WCI  27
BLACK RVR FLS  CLOUDY    35  35 100 W3        29.96R FOG
MEDFORD        PTCLDY    35  33  92 W6        29.91R WCI  30
WAUSAU         CLOUDY    35  34  96 NW5       29.90R WCI  31
WIS RAPIDS     CLOUDY    34  34 100 CALM      29.94R FOG
MARSHFIELD     CLOUDY    35  32  88 NW8       29.91R WCI  29
RICE LAKE      CLEAR     33  29  86 SW5       29.95F WCI  28
$$

...NORTHEAST IOWA...


CITY           SKY/WX    TMP DP  RH WIND       PRES   REMARKS
WATERLOO       CLOUDY    33  31  92 NW9       30.04R FOG     WCI  25
DUBUQUE        CLOUDY    33  32  96 W9        29.98R FOG     WCI  25
DECORAH        CLOUDY    34  34 100 NW9       29.98R FOG     WCI  26
MASON CITY     CLOUDY    32  31  96 W9        30.04R FOG     WCI  24
CHARLES CITY   CLOUDY    34  34 100 NW13      30.02R FOG     WCI  25
OELWEIN        FOG       32  32 100 NW13      30.02R VSB 1/2 WCI  22
$$

...ELSEWHERE IN IOWA...


CITY           SKY/WX    TMP DP  RH WIND       PRES   REMARKS
DES MOINES     CLOUDY    36  33  89 W6        30.09R WCI  31
IOWA CITY      CLOUDY    35  32  88 W10       30.07R WCI  27
FORT DODGE     CLOUDY    30  28  93 MISG      30.07R
MARSHALLTOWN   CLOUDY    33  33 100 NW5       30.05R WCI  29
CEDAR RAPIDS   CLOUDY    32  32 100 W12       30.04R FOG     WCI  23
$$

...NORTHERN ILLINOIS...


CITY           SKY/WX    TMP DP  RH WIND       PRES   REMARKS
CHICAGO-OHARE  CLOUDY    36  34  92 W12       29.95R FOG     WCI  28
CHICAGO-MIDWAY DRIZZLE   35  34  96 W10       29.96R FOG     WCI  27
MOLINE         CLOUDY    36  33  89 W12       30.03R FOG     WCI  28
ROCKFORD       DRIZZLE   35  33  92 W9        29.99R FOG     WCI  28
PEORIA         CLOUDY    36  34  92 W12       30.07R WCI  28
$$

NOTE: "FAIR" INDICATES FEW OR NO CLOUDS BELOW 12,000 FEET WITH NO
SIGNIFICANT WEATHER AND/OR OBSTRUCTIONS TO VISIBILITY. WIND
SPEEDS ARE IN MILES-PER-HOUR.




USA.gov is the U.S. government's official web portal to all federal, state and local government web resources and services.